www.pogodaiklimat.ru

Погода и климат >> Архив погоды >> Украина >> Лошкаревка


ПОГОДА в Лошкаревке

  • Прогноз погоды в Лошкаревке
  • Монитор погоды в Лошкаревке

АРХИВ ПОГОДЫ в Лошкаревке

Время (UTC), дата Ветер
(напр.,м/с)
 
Видим.   Явления Облачность Т
(С)
Тd
(С)
f
(%)
Тe
(С)
Тes
(С)
Комфортность P
(гПа)
Po
(гПа)
Тmin
(С)
Tmax
(С)
R
(мм)
R24
(мм)
S
(см)
06 12.08 В 1 10 км ясно +24.2 +16.0 60 +27 +35 жарко 1018.3 1008.5 +17.2
09 12.08 СВ 1 10 км ясно +27.3 +14.5 45 +30 +47 душно 1018.3 1008.6
12 12.08 В 2 10 км 3/3 1000 м
[Cu hum]
+29.6 +15.7 43 +32 +40 душно 1017.5 1007.9
15 12.08 С 1 10 км 3/3 600 м
[Cu hum]
+30.0 +15.4 41 +33 +34 душно 1016.9 1007.3
18 12.08 В 1 16 км ясно +24.2 +16.5 62 +28 +28 душно 1017.5 1007.7 +30.3
21 12.08 В 1 14 км ясно +21.0 +14.7 67 +25 +25 комфорт 1018.0 1008.1
00 13.08 В 1 13 км ясно +20.4 +14.9 71 +24 +24 комфорт 1018.0 1008.1
03 13.08 В 1 10 км 3/0
[Ci fib]
+19.6 +15.5 77 +23 +23 комфорт 1018.0 1008.1
06 13.08 ЮВ 2 10 км 1/0
[Ci fib]
+25.2 +18.0 64 +30 +36 душно 1017.8 1008.1 +18.8
09 13.08 Ю 4 10 км 1/1 600 м
[Cu hum]
+29.2 +16.1 45 +32 +41 душно 1017.6 1008.0
12 13.08 Ю 4 10 км 1/1 600 м
[Cu hum]
+31.2 +16.8 42 +35 +41 очень
душно
1016.3 1006.8
15 13.08 Ю 3 10 км ясно +30.7 +15.1 39 +33 +35 душно 1015.2 1005.7
18 13.08 ЮВ 2 15 км ясно +25.6 +15.5 54 +29 +29 душно 1015.2 1005.5 +31.4
21 13.08 Ю 1 14 км ясно +22.9 +14.2 58 +26 +26 жарко 1016.1 1006.3
00 14.08 штиль 0 12 км ясно +17.9 +15.0 83 +18 +18 1016.1 1006.1
03 14.08 штиль 0 10 км ясно +16.3 +13.2 82 +16 +16 1016.0 1006.0
06 14.08 ЮВ 1 10 км ясно +25.3 +11.8 43 +27 +34 жарко 1015.3 1005.6 +16.0
09 14.08 В 4 10 км ясно +29.2 +9.0 28 +29 +39 жарко 1013.9 1004.3
12 14.08 ЮВ 4 10 км ясно +31.0 +8.2 24 +30 +37 жарко 1012.1 1002.6
15 14.08 ЮВ 4 10 км ясно +30.6 +8.7 26 +30 +31 жарко 1010.7 1001.2
18 14.08 В 2 18 км ясно +23.9 +13.8 53 +26 +26 жарко 1010.4 1000.7 +32.0
21 14.08 В 1 16 км ясно +20.4 +13.8 66 +24 +24 комфорт 1009.8 1000.0
00 15.08 штиль 0 15 км ясно +16.5 +12.3 76 +16 +16 1009.6 999.6
03 15.08 штиль 0 10 км 6/0
[Ci]
+14.1 +11.3 83 +14 +14 1009.2 999.2
06 15.08 В 3 10 км 9/0
[Ac cast Ci]
+23.9 +11.7 46 +25 +27 комфорт 1008.5 998.8 +13.8
09 15.08 В 3 10 км 9/0
[Ac cast Cs]
+29.9 +9.7 28 +30 +34 жарко 1007.5 998.0
12 15.08 ЮВ 2 10 км 10/0
[As op]
+30.0 +8.2 26 +29 +31 жарко 1006.8 997.3
15 15.08 ЮЗ 1 10 км 10/0
[As op]
+28.0 +11.3 35 +29 +29 жарко 1007.8 998.2
18 15.08 СЗ 2 9000 м слаб. ливневой дождь 10/4 600 м
[Cb cap As op]
+23.6 +14.1 55 +26 +26 жарко 1008.3 998.6 +30.3 0.0
21 15.08 СЗ 2 14 км {ливн. осадки} 10/0
[Ac und]
+20.9 +14.8 68 +25 +25 комфорт 1008.4 998.6
00 16.08 СЗ 1 12 км {ливн. осадки} ясно +18.2 +14.4 78 +20 +20 1007.8 997.9
03 16.08 штиль 0 10 км 3/0
[Ci fib]
+16.1 +13.8 86 +16 +16 1008.6 998.6
06 16.08 СЗ 1 10 км 3/0
[Ci fib]
+21.4 +17.8 80 +26 +32 душно 1008.6 998.8 +15.5 0.0
12 16.08 З 2 10 км 9/3 600 м
[Cu med, cong Cs]
+27.2 +17.7 56 +31 +38 душно 1007.9 998.3
18 16.08 СЗ 4 14 км 8/3 600 м
[Sc Ac trans Ci]
+20.2 +15.5 74 +23 +23 комфорт 1009.4 999.6 +28.0
00 17.08 СЗ 3 11 км 10/0
[As op]
+17.3 +14.9 86 +17 +17 1009.7 999.8
06 17.08 СЗ 3 10 км 10/10 900 м
[Sc]
+17.7 +13.8 78 +18 +18 1010.2 1000.3 +16.8
12 17.08 З 3 10 км 10/6 600 м
[Cu med, cong As op]
+20.3 +14.1 68 +23 +24 комфорт 1010.3 1000.5
18 17.08 СЗ 1 14 км 10/3 600 м
[Sc Ac und]
+18.9 +14.0 73 +21 +21 комфорт 1011.4 1001.5 +20.8
00 18.08 З 1 11 км 10/10 700 м
[Sc]
+16.7 +13.7 82 +18 +18 1012.0 1002.0
06 18.08 СЗ 2 10 км 10/10 840 м
[Sc]
+17.0 +13.8 81 +17 +17 1012.7 1002.7 +16.0
12 18.08 СЗ 2 10 км 8/6 1000 м
[Sc Ac trans]
+21.8 +12.7 56 +24 +27 комфорт 1013.6 1003.8
18 18.08 СЗ 1 17 км 8/0
[Ac trans Ci fib]
+20.5 +13.3 63 +24 +24 комфорт 1014.8 1004.9 +24.0

 

Местоположение метеостанции Лошкаревка (Днепропетровская область, Украина): широта 48.00 долгота 34.20 высота над уровнем моря 84 м.

В архиве по умолчанию представлена погода в Лошкаревке за последнюю неделю. Архивные данные за месяц целиком и за предыдущие месяцы, начиная с января 2011 года, Вы можете получить, выбрав интересующий диапазон дат из раскрывающегося списка и нажав кнопку "Ввод!".


*Определитесь, кто Вы:
робот инопланетянин человек

Внимание! Время в таблицах - всемирное. Для получения местного времени необходимо прибавить поправку, которая равна 2 ч.

Смотрите также архив погоды в соседних городах и на ближайших метеорологических станциях:

Погода в Никополе (Днепропетровская область, Украина) (50 км)
Погода в Комиссаровке (Днепропетровская область, Украина) (53 км)
Погода в Запорожье (Запорожская область, Украина) (65 км)
Погода в Кривом Роге (Днепропетровская область, Украина) (73 км)
Погода в Днепре (Днепропетровская область, Украина) (88 км)
Погода в Великой Александровке (Херсонская область, Украина) (102 км)
Погода в Синельниково (Днепропетровская область, Украина) (106 км)
Погода в Долинской (Кировоградская область, Украина) (107 км)
Погода в Пришибе (Запорожская область, Украина) (117 км)
Погода в Губинихе (Днепропетровская область, Украина) (118 км)

Пояснения к столбцам:

Ветер - указаны скорость ветра в м/с - средняя за 10 мин, порывы в срок и между сроками (в фигурных скобках) и направление, откуда дует ветер: С - северный, СВ - северо-восточный, В - восточный, ЮВ - юго-восточный, Ю - южный, ЮЗ - юго-западный, З - западный, СЗ - северо-западный.
Видимость - горизонтальная дальность видимости в метрах или километрах. При видимости от 1 до 10 км при отсутствии осадков обычно наблюдается дымка, при ухудшении видимости до 1 км и менее - туман. В сухую погоду видимость может ухудшаться дымом, пылью или мглою.
Явления - указаны атмосферные явления, наблюдавшиеся в срок или в последний час перед сроком; фигурными скобками обозначены явления, наблюдавшиеся между сроками (за 1-3 часа до срока); квадратными скобками обозначены град или гололедные отложения с указанием их диаметра в мм.
Облачность - указаны через наклонную черту общая и нижняя облачность в баллах и высота нижней границы облаков в метрах; квадратными скобками обозначены формы облаков: Ci - перистые, Cs - перисто-слоистые, Cc - перисто-кучевые, Ac - высококучевые, As - высокослоистые, Sc - слоисто-кучевые, Ns - слоисто-дождевые, Cu - кучевые, Cb - кучево-дождевые. Подробнее классификацию облаков см. в Атласе облаков (PDF).
T - Температура воздуха - температура, измеренная на высоте 2 м над землей.
Td - Температура точки росы - температура, при понижении до которой содержащийся в воздухе водяной пар достигнет насыщения.
f - Относительная влажность воздуха - влажноcть воздуха, измеренная на высоте 2 м над землей.
Te - Эффективная температура - температура, которую ощущает одетый по сезону человек в тени. Характеристика душности погоды. При расчете учитывается влияние влажности воздуха и скорости ветра на теплоощущения человека.
Tes - Эффективная температура на солнце - температура, которую ощущает человек, с поправкой на солнечный нагрев. Характеристика знойности погоды. Зависит от высоты солнца над горизонтом, облачности и скорости ветра. Ночью, в пасмурную погоду, а также при ветре 12 м/с и более поправка равна нулю.
P - Атмосферное давление - приведенное к уровню моря атмосферное давление.
Po - Атмосферное давление - измеренное на уровне метеостанции атмосферное давление.
Tmin - Минимальная температура - минимум температуры воздуха на высоте 2 м над землей.
Tmax - Максимальная температура - максимум температуры воздуха на высоте 2 м над землей.
R - Количество осадков - Количество выпавших осадков за период времени, мм. При наведении курсора мыши на число - период времени, за который выпало указанное количество осадков.
R24 - Количество осадков - Количество выпавших осадков за 24 часа, мм.
S - Снежный покров - Высота снежного покрова, см. При наведении курсора мыши на число - состояние снежного покрова и степень покрытия местности в баллах.